Weather History for KOOA - June, 2013

Change the Weather History Date:

Sunday, June 23, 2013

  Actual Average (KOTM) Record (KOTM)
Temperature  
Mean Temperature 74 °F 73 °F  
Max Temperature 81 °F 84 °F 99 °F (1933)
Min Temperature 67 °F 63 °F 48 °F (1942)
Degree Days  
Heating Degree Days 0 0  
Month to date heating degree days 19  
Since 1 June heating degree days 19  
Since 1 July heating degree days 6315  
Cooling Degree Days 8 8  
Month to date cooling degree days 136  
Year to date cooling degree days 200  
Since 1 June cooling degree days 136  
Growing Degree Days 24 (Base 50)    
Moisture  
Dew Point 65 °F    
Average Humidity 78    
Maximum Humidity 88    
Minimum Humidity 61    
Precipitation  
Precipitation 0.42 in 0.17 in 3.14 in (2000)
Month to date precipitation 3.92  
Year to date precipitation 16.45  
Sea Level Pressure  
Sea Level Pressure 29.93 in    
Wind  
Wind Speed 12 mph (South)    
Max Wind Speed 30 mph    
Max Gust Speed 36 mph    
Visibility 10 miles    
Events Rain    
T = Trace of Precipitation, MM = Missing Value Source: NWS Daily Summary

Daily Weather History Graph

Daily Weather History Graph

Search for Another Location

Airport or City:

Trip Planner

Search our weather history database for the weather conditions in past years. The results will help you decide how hot, cold, wet, or windy it might be!

Date:

Astronomy

Jun. 23, 2013 Rise Set
Actual Time 5:37 AM CDT 8:46 PM CDT
Civil Twilight 5:03 AM CDT 9:20 PM CDT
Nautical Twilight 4:20 AM CDT 10:03 PM CDT
Astronomical Twilight 3:28 AM CDT 10:55 PM CDT
Moon 8:58 PM CDT (6/23) 5:56 AM CDT (6/23)
Length of Visible Light 16h 16m
Length of Day
15h 09m
Full, 100% of the Moon is Illuminated
Jun 23
Full
Jun 29
Last Quarter
Jul 8
New
Jul 15
First Quarter
Jul 22
Full

Hourly Weather History & Observations

Time (CDT) Temp. Heat Index Dew Point Humidity Pressure Visibility Wind Dir Wind Speed Gust Speed Precip Events Conditions
12:15 AM 77.9 °F - 69.8 °F 76% 29.93 in 10.0 mi South 12.7 mph - N/A   Clear
12:35 AM 77.2 °F - 69.8 °F 78% 29.93 in 10.0 mi South 12.7 mph - N/A   Clear
12:55 AM 77.0 °F - 69.8 °F 78% 29.93 in 10.0 mi SSE 12.7 mph - N/A   Clear
1:15 AM 76.1 °F - 69.8 °F 81% 29.92 in 10.0 mi SSE 12.7 mph - N/A   Clear
1:35 AM 75.9 °F - 69.8 °F 81% 29.92 in 10.0 mi SSE 13.8 mph - N/A   Clear
1:55 AM 75.4 °F - 69.3 °F 81% 29.91 in 10.0 mi SSE 13.8 mph - N/A   Clear
2:15 AM 74.8 °F - 68.9 °F 82% 29.91 in 10.0 mi SSE 11.5 mph - N/A   Clear
2:35 AM 74.3 °F - 68.5 °F 82% 29.92 in 10.0 mi SSE 11.5 mph - N/A   Clear
2:55 AM 73.4 °F - 68.0 °F 83% 29.92 in 10.0 mi SSE 8.1 mph - N/A   Clear
3:15 AM 72.5 °F - 67.6 °F 85% 29.93 in 10.0 mi South 8.1 mph - N/A   Clear
3:35 AM 71.8 °F - 67.3 °F 86% 29.92 in 10.0 mi SSE 8.1 mph - N/A   Clear
3:55 AM 71.4 °F - 67.1 °F 86% 29.92 in 10.0 mi SSE 9.2 mph - N/A   Clear
4:15 AM 71.1 °F - 66.7 °F 86% 29.92 in 10.0 mi SSE 10.4 mph - N/A   Clear
4:35 AM 70.9 °F - 66.4 °F 86% 29.92 in 10.0 mi SSE 9.2 mph - N/A   Clear
4:55 AM 70.7 °F - 66.2 °F 86% 29.92 in 10.0 mi SSE 9.2 mph - N/A   Clear
5:15 AM 70.3 °F - 66.2 °F 87% 29.92 in 10.0 mi SSE 9.2 mph - N/A   Clear
5:35 AM 70.2 °F - 65.8 °F 86% 29.91 in 10.0 mi SSE 10.4 mph - N/A   Clear
5:55 AM 69.8 °F - 65.7 °F 87% 29.90 in 10.0 mi SSE 10.4 mph - N/A   Clear
6:15 AM 69.8 °F - 65.7 °F 87% 29.90 in 7.0 mi South 8.1 mph - N/A   Clear
6:35 AM 70.3 °F - 65.7 °F 85% 29.90 in 10.0 mi SSE 11.5 mph - N/A   Clear
6:55 AM 71.1 °F - 66.0 °F 84% 29.90 in 10.0 mi SSE 11.5 mph - N/A   Clear
7:15 AM 72.5 °F - 66.2 °F 81% 29.92 in 10.0 mi South 11.5 mph - N/A   Clear
7:35 AM 73.8 °F - 66.6 °F 78% 29.93 in 10.0 mi South 12.7 mph - N/A   Clear
7:55 AM 75.4 °F - 67.1 °F 75% 29.93 in 10.0 mi South 11.5 mph - N/A   Clear
8:15 AM 76.3 °F - 66.7 °F 72% 29.92 in 10.0 mi South 15.0 mph - N/A   Clear
8:35 AM 77.2 °F - 66.9 °F 71% 29.92 in 10.0 mi South 18.4 mph 25.3 mph N/A   Clear
8:55 AM 78.3 °F - 67.3 °F 69% 29.93 in 10.0 mi South 15.0 mph 24.2 mph N/A   Clear
9:15 AM 79.7 °F - 67.8 °F 67% 29.93 in 10.0 mi South 16.1 mph - N/A   Clear
9:35 AM 79.7 °F - 67.5 °F 66% 29.96 in 10.0 mi SW 15.0 mph - N/A   Mostly Cloudy
9:55 AM 80.2 °F 82.8 °F 68.0 °F 66% 29.97 in 10.0 mi SSW 13.8 mph - N/A   Mostly Cloudy
10:15 AM 73.9 °F - 59.5 °F 61% 30.02 in 10.0 mi WNW 29.9 mph 35.7 mph N/A   Mostly Cloudy
10:35 AM 68.2 °F - 62.1 °F 81% 30.02 in 5.0 mi NNW 27.6 mph 35.7 mph 0.03 in Rain Heavy Rain
10:55 AM 68.4 °F - 63.5 °F 84% 30.02 in 7.0 mi NNW 21.9 mph 27.6 mph 0.04 in Rain Light Rain
11:15 AM 67.1 °F - 62.8 °F 86% 30.02 in 1.8 mi North 12.7 mph - 0.17 in Rain Heavy Rain
11:35 AM 67.3 °F - 63.5 °F 88% 30.03 in 3.0 mi Calm Calm - 0.25 in Rain Heavy Rain
11:55 AM 67.3 °F - 63.5 °F 88% 30.01 in 4.0 mi West 10.4 mph - 0.33 in Rain Rain
12:15 PM 69.6 °F - 61.9 °F 76% 29.99 in 7.0 mi South 10.4 mph - 0.03 in Rain Rain
12:35 PM 67.3 °F - 63.0 °F 86% 29.94 in 10.0 mi SE 21.9 mph 27.6 mph 0.05 in Rain Light Rain
12:55 PM 68.5 °F - 62.2 °F 80% 29.93 in 10.0 mi SSE 19.6 mph 25.3 mph 0.05 in   Scattered Clouds
1:15 PM 70.0 °F - 62.1 °F 76% 29.91 in 10.0 mi ESE 12.7 mph - N/A   Clear
1:35 PM 70.2 °F - 63.1 °F 78% 29.89 in 10.0 mi ESE 12.7 mph - N/A   Clear
1:55 PM 71.1 °F - 62.8 °F 75% 29.89 in 10.0 mi SE 11.5 mph 18.4 mph N/A   Clear
2:15 PM 72.7 °F - 63.0 °F 71% 29.88 in 10.0 mi SE 15.0 mph - N/A   Clear
2:35 PM 74.5 °F - 62.8 °F 67% 29.88 in 10.0 mi SSE 11.5 mph - N/A   Clear
2:55 PM 74.8 °F - 62.8 °F 66% 29.88 in 10.0 mi South 9.2 mph - N/A   Clear
3:15 PM 75.2 °F - 63.7 °F 67% 29.90 in 10.0 mi SW 9.2 mph - N/A   Clear
3:35 PM 75.2 °F - 64.2 °F 69% 29.90 in 10.0 mi SW 8.1 mph - N/A   Clear
3:55 PM 75.4 °F - 63.7 °F 67% 29.90 in 10.0 mi SW 8.1 mph - N/A   Clear
4:15 PM 75.4 °F - 64.0 °F 68% 29.90 in 10.0 mi WSW 10.4 mph - N/A   Clear
4:35 PM 75.2 °F - 65.1 °F 71% 29.92 in 10.0 mi West 8.1 mph - N/A   Clear
4:55 PM 75.2 °F - 65.5 °F 72% 29.92 in 10.0 mi West 8.1 mph - N/A   Clear
5:15 PM 75.0 °F - 66.7 °F 75% 29.92 in 10.0 mi West 8.1 mph - N/A   Clear
5:35 PM 74.7 °F - 63.5 °F 68% 29.93 in 10.0 mi SW 12.7 mph - N/A   Clear
5:55 PM 74.3 °F - 64.6 °F 72% 29.91 in 10.0 mi SW 6.9 mph - N/A   Clear
6:15 PM 74.3 °F - 64.0 °F 70% 29.90 in 10.0 mi SW 6.9 mph - N/A   Clear
6:35 PM 73.4 °F - 63.7 °F 71% 29.90 in 10.0 mi SSW 9.2 mph - N/A   Clear
6:55 PM 72.9 °F - 64.4 °F 75% 29.91 in 10.0 mi South 8.1 mph - N/A   Clear
7:15 PM 72.5 °F - 64.4 °F 76% 29.92 in 10.0 mi South 5.8 mph - N/A   Clear
7:35 PM 72.5 °F - 64.9 °F 77% 29.93 in 10.0 mi SSE 8.1 mph - N/A   Clear
7:55 PM 71.8 °F - 65.3 °F 80% 29.94 in 10.0 mi SSE 6.9 mph - N/A   Clear
8:15 PM 71.4 °F - 64.9 °F 80% 29.94 in 10.0 mi SSE 5.8 mph - N/A   Scattered Clouds
8:35 PM 70.9 °F - 65.1 °F 82% 29.95 in 10.0 mi SSE 6.9 mph - N/A   Mostly Cloudy
8:55 PM 70.5 °F - 65.3 °F 83% 29.95 in 10.0 mi SSE 6.9 mph - N/A   Scattered Clouds
9:15 PM 70.0 °F - 65.3 °F 85% 29.95 in 10.0 mi SSE 9.2 mph - N/A   Mostly Cloudy
9:35 PM 70.0 °F - 65.3 °F 85% 29.97 in 10.0 mi South 9.2 mph - N/A   Overcast
9:55 PM 70.2 °F - 64.8 °F 83% 29.96 in 10.0 mi South 9.2 mph - N/A   Mostly Cloudy
10:15 PM 70.3 °F - 64.4 °F 81% 29.96 in 10.0 mi South 6.9 mph - N/A   Scattered Clouds
10:35 PM 69.8 °F - 64.8 °F 84% 29.97 in 10.0 mi South 6.9 mph - N/A   Clear
10:55 PM 69.3 °F - 64.8 °F 86% 29.96 in 10.0 mi South 6.9 mph - N/A   Scattered Clouds
11:15 PM 69.1 °F - 64.9 °F 87% 29.95 in 10.0 mi South 6.9 mph - N/A   Scattered Clouds
11:35 PM 68.9 °F - 64.4 °F 86% 29.96 in 10.0 mi SSE 9.2 mph - N/A   Clear
11:55 PM 68.4 °F - 63.9 °F 85% 29.97 in 10.0 mi SSE 6.9 mph - N/A   Clear